Regional Weather Roundup
Issued by NWS

Home | Current Version | Previous Version | Graphics & Text | Print | Product List | Glossary On
Versions: 1 2 3 4 5 6 7 8 9 10 11 12 13 14 15 16 17 18 19 20 21 22 23 24 25 26 27
000
ASUS45 KCYS 261810
RWRWY

WYOMING REGIONAL WEATHER ROUNDUP
NATIONAL WEATHER SERVICE CHEYENNE WY
1200 PM MDT WED APR 26 2017

NOTE:  "FAIR" INDICATES FEW OR NO CLOUDS BELOW 12,000 FEET
WITH NO SIGNIFICANT WEATHER AND/OR OBSTRUCTIONS TO VISIBILITY.

WYZ001-261900-
YELLOWSTONE NATIONAL PARK

CITY           SKY/WX    TMP DP  RH WIND       PRES   REMARKS
LK YELLOWSTONE   N/A     33  25  72 VRB5      29.78S WCI  29
6HR MIN TEMP:  26; 6HR MAX TEMP:  35; 6HR PCP:  0.03;

W YELLOWSTONE  NOT AVBL

$$
WYZ002>013-054>058-071-098>099-261900-
NORTHERN WYOMING

CITY           SKY/WX    TMP DP  RH WIND       PRES   REMARKS
JACKSON        PTSUNNY   39  32  75 SW9       29.80S WCI  33
CODY           FAIR      49  27  42 W12       29.71F
GREYBULL       FAIR      52  32  46 VRB6      29.71F
WORLAND        FAIR      50  38  63 VRB6      29.71F
6HR MIN TEMP:  33; 6HR MAX TEMP:  50;

SHERIDAN       CLOUDY    33  27  78 N3        29.78F
6HR MIN TEMP:  27; 6HR MAX TEMP:  34;

BUFFALO        CLOUDY    34  25  69 CALM      29.75S
6HR MIN TEMP:  29; 6HR MAX TEMP:  35;

GILLETTE       CLOUDY    35  35 100 N5        29.78R WCI  31
6HR MIN TEMP:  25; 6HR MAX TEMP:  37; 6HR PCP: TRACE;

HULETT         CLOUDY    32  28  86 CALM      29.79F
NEWCASTLE      MOCLDY    36  30  80 SW5       29.79F WCI  32

$$
WYZ014>020-022>026-101>103-261900-
CENTRAL WYOMING

CITY           SKY/WX    TMP DP  RH WIND       PRES   REMARKS
BIG PINEY      CLOUDY    43  24  47 W13       29.80F
6HR MIN TEMP:  29; 6HR MAX TEMP:  43;

PINEDALE       CLOUDY    37  28  70 CALM      29.80F
DUBOIS         CLOUDY    36  30  80 NW21G26   29.74F HAZE    WCI  24
LANDER         PTSUNNY   51  25  36 S6        29.70F
6HR MIN TEMP:  28; 6HR MAX TEMP:  53;

RIVERTON       FAIR      49  30  48 CALM      29.73F
6HR MIN TEMP:  29; 6HR MAX TEMP:  49;

CASPER         PTSUNNY   50  28  42 SW12      29.74F
6HR MIN TEMP:  30; 6HR MAX TEMP:  50;

DOUGLAS        FAIR      53  32  44 W17G24    29.74F
6HR MIN TEMP:  21; 6HR MAX TEMP:  53;


$$
WYZ021-027>030-104>119-261900-
SOUTHERN WYOMING

CITY           SKY/WX    TMP DP  RH WIND       PRES   REMARKS
EVANSTON       CLOUDY    42  30  62 SW23G29   29.86F
6HR MIN TEMP:  30; 6HR MAX TEMP:  43;

KEMMERER         N/A     37  30  75 W18G25    29.85S WCI  27
FORT BRIDGER   CLOUDY    41  29  62 W18G25    29.88F
ROCK SPRINGS   LGT RAIN  41  28  60 W21G28    29.83F
6HR MIN TEMP:  33; 6HR MAX TEMP:  44; 6HR PCP: TRACE;

DIXON            N/A     40  32  71 SW16G22   29.89S HAZE    WCI  32
RAWLINS        LGT RAIN  43  29  57 W22G29    29.81F
6HR MIN TEMP:  31; 6HR MAX TEMP:  45; 6HR PCP: TRACE;

SARATOGA       MIX PCPN  37  30  75 W20G33    29.84S WCI  27
LARAMIE        FAIR      45  22  40 W21G30    29.78S
6HR MIN TEMP:  21; 6HR MAX TEMP:  45;

CHEYENNE       FAIR      51  22  31 NW23G32   29.74F
6HR MIN TEMP:  28; 6HR MAX TEMP:  51;

TORRINGTON     FAIR      50  27  40 VRB3      29.74F
6HR MIN TEMP:  26; 6HR MAX TEMP:  50;

PINE BLUFFS    MOCLDY    52  30  43 N7G18     29.74F

$$




USA.gov is the U.S. government's official web portal to all federal, state and local government web resources and services.